[[{"header":{"parameterUnit":"m.s-1","parameterCategory":1,"la1":30.2991,"la2":30.254,"lo1":-89.0895,"lo2":-89.0444,"dy":0.0017,"dx":0.0017,"nx":28,"ny":28,"refTime":"2024-06-16T03:00:00:Z","depth":0,"parameterNumber":2,"parameterNumberName":"U-component_of_WINDS"},"data":[0,0,0,0,0,0,0,0,0,0,0,0,0,0,0,0,0,0,0,0,0,0,0,0,0,0,0,0,0,0,0,0,0,0,0,0,0,0,0,0,0,0,0,0,0,0,0,0,0,0,0,0,0,0,0,0,0,0,-7.2097,-7.2097,0,-7.2141,-7.2142,-7.2142,-7.1977,-7.1972,-7.1967,-7.1962,-7.2007,-7.2012,-7.2018,0,0,0,0,0,0,0,0,0,0,0,0,0,-7.1869,-7.1874,-7.2097,-7.2097,-7.2098,-7.2141,-7.2142,-7.2142,-7.1978,-7.1972,-7.1966,-7.196,-7.2005,-7.2012,-7.2019,0,0,0,0,0,0,0,0,0,0,0,0,0,-7.1946,-7.1876,-7.2097,-7.2021,-7.2015,-7.2141,-7.2142,-7.2143,-7.1979,-7.1972,-7.1964,-7.1957,-7.2003,-7.2011,-7.202,-7.2221,0,0,-7.2046,-7.205,0,0,0,0,0,0,0,0,-7.1942,-7.1955,-7.2032,-7.2026,-7.202,-7.2046,-7.2078,-7.2169,-7.1981,-7.1993,-7.1962,-7.1954,-7.2026,-7.2032,-7.2056,-7.2223,-7.2225,-7.2047,-7.2052,-7.2056,-7.2058,0,0,0,0,0,0,0,-7.1937,-7.1952,-7.2114,-7.2033,-7.2026,-7.1985,-7.1988,-7.2094,-7.205,-7.1991,-7.1979,-7.1987,-7.2021,-7.2049,-7.2056,-7.2225,-7.2046,-7.2054,-7.2059,-7.2063,-7.2559,-7.2566,0,0,0,0,0,0,-7.1942,-7.1949,-7.2113,-7.2116,-7.1962,-7.1995,-7.1998,-7.2045,-7.2048,-7.2042,-7.1993,-7.1979,-7.2037,-7.2046,-7.2057,-7.2292,-7.2056,-7.2064,-7.2069,-7.2551,-7.256,-7.2569,0,0,0,0,0,0,-7.1938,-7.1958,-7.2111,-7.2029,-7.2045,-7.2007,-7.2061,-7.205,-7.2077,-7.205,-7.2041,-7.2029,-7.2032,-7.2045,-7.2181,-7.2291,-7.2068,-7.2075,-7.2541,-7.2554,-7.2565,-7.2763,0,0,0,0,0,0,-7.1932,-7.1958,-7.2033,-7.2032,-7.205,-7.2235,-7.2068,-7.2056,-7.2092,-7.2074,-7.2081,-7.2075,-7.2027,-7.2169,-7.219,-7.2299,-7.2082,-7.2531,-7.2547,-7.2561,-7.2747,-7.2781,-7.281,0,0,0,0,0,-7.1924,-7.2087,-7.2038,-7.2059,-7.2144,-7.2241,-7.2252,-7.2193,-7.2102,-7.2178,-7.2161,-7.2075,-7.2277,-7.2185,-7.2206,-7.232,-7.2524,-7.2542,-7.256,-7.2733,-7.2774,-7.2809,0,0,0,0,0,0,-7.2101,-7.2086,-7.2031,-7.2198,-7.2223,-7.2213,-7.2307,-7.2239,-7.2289,-7.227,-7.2195,-7.2198,-7.2348,-7.2347,-7.2245,-7.2515,-7.2384,-7.2408,-7.2508,-7.2547,-7.2578,-7.2574,-7.2089,0,0,0,0,0,-7.216,-7.2241,-7.2222,-7.2372,-7.2387,-7.2346,-7.2386,-7.2339,-7.2361,-7.237,-7.2362,-7.2387,-7.2455,-7.2502,-7.2563,-7.2747,-7.2746,-7.2836,-7.2868,-7.2894,-7.2913,-7.301,-7.305,-7.2628,-7.2628,-7.2627,0,0,-7.2282,-7.2283,-7.2338,-7.2408,-7.2421,-7.2505,-7.2355,-7.2451,-7.2513,-7.2384,-7.2511,-7.2508,-7.253,-7.2691,-7.2762,-7.2696,-7.303,-7.2917,-7.2937,-7.2943,-7.3033,-7.3073,-7.3108,-7.264,-7.2638,-7.2636,0,0,-7.2546,-7.2556,-7.2681,-7.2698,-7.2721,-7.2693,-7.2723,-7.2725,-7.2718,-7.2845,-7.2751,-7.2824,-7.2944,-7.2963,-7.2989,-7.3264,-7.3187,-7.3287,-7.345,-7.3545,-7.3578,-7.3607,-7.3703,-7.3739,-7.3307,-7.3308,-7.3308,0,-7.2694,-7.2817,-7.2754,-7.2857,-7.289,-7.2779,-7.2905,-7.2925,-7.2967,-7.2992,-7.2918,-7.3067,-7.3074,-7.3238,-7.3305,-7.3331,-7.3362,-7.3284,-7.3578,-7.3607,-7.3633,-7.3724,-7.3761,-7.332,-7.3318,-7.3317,-7.3316,0,-7.2997,-7.3085,-7.3184,-7.3227,-7.3272,-7.3386,-7.334,-7.3393,-7.3344,-7.3324,-7.3455,-7.3461,-7.3522,-7.3558,-7.351,-7.3715,-7.3674,-7.3591,-7.3458,-7.3686,-7.377,-7.3805,-7.3337,-7.3332,-7.3329,-7.3326,0,0,-7.337,-7.338,-7.3417,-7.3435,-7.3454,-7.352,-7.363,-7.369,-7.3736,-7.377,-7.3859,-7.3965,-7.3889,-7.3918,-7.3872,-7.3957,-7.4173,-7.3863,-7.3862,-7.3918,-7.4398,-7.4458,-7.4499,-7.4124,-7.413,-7.4135,-7.4395,0,-7.3628,-7.3815,-7.3762,-7.3949,-7.4029,-7.3927,-7.4023,-7.4045,-7.403,-7.4095,-7.4079,-7.4154,-7.4049,-7.4066,-7.4145,-7.413,-7.4267,-7.4111,-7.4204,-7.4208,-7.4198,-7.4543,-7.4607,-7.4852,-7.4428,-7.4433,-7.4437,0,-7.3952,-7.3999,-7.4195,-7.42,-7.4232,-7.4319,-7.437,-7.4434,-7.4458,-7.4441,-7.4476,-7.4413,-7.4521,-7.4392,-7.4539,-7.4433,-7.4469,-7.4468,-7.4476,-7.448,-7.4334,-7.4554,-7.4929,-7.4965,-7.4489,-7.4485,-7.4481,0,-7.4202,-7.4314,-7.4445,-7.4465,-7.4476,-7.4539,-7.4546,-7.4562,-7.4602,-7.4648,-7.4673,-7.4731,-7.4762,-7.4808,-7.4763,-7.4673,-7.4918,-7.4784,-7.4905,-7.4907,-7.4958,-7.4955,-7.5341,-7.4987,-7.4987,-7.4986,-7.4985,0,-7.4493,-7.4616,-7.4558,-7.4638,-7.4773,-7.4713,-7.4848,-7.4844,-7.486,-7.4938,-7.4854,-7.4929,-7.4867,-7.4936,-7.4902,-7.5029,-7.5044,-7.5033,-7.5022,-7.5039,-7.504,-7.5059,-7.5039,-7.4996,-7.4994,-7.4992,-7.499,0,-7.4792,-7.4759,-7.4895,-7.4895,-7.4898,-7.4997,-7.4997,-7.5071,-7.5052,-7.5152,-7.5172,-7.5141,-7.5219,-7.518,-7.526,-7.5237,-7.5401,-7.5368,-7.5393,-7.5383,-7.5506,-7.5494,-7.5915,-7.5967,-7.5583,-7.5586,-7.559,0,-7.4978,-7.5071,-7.5081,-7.5128,-7.5141,-7.5217,-7.5258,-7.5203,-7.5249,-7.5284,-7.5354,-7.5425,-7.5478,-7.5608,-7.5592,-7.5654,-7.562,-7.5764,-7.5629,-7.5643,-7.562,-7.5614,-7.5622,-7.579,-7.5794,-7.5798,-7.5801,0,-7.5312,-7.5291,-7.5353,-7.5411,-7.5462,-7.5504,-7.5539,-7.5582,-7.5529,-7.5585,-7.5664,-7.5706,-7.5789,-7.586,-7.5914,-7.5921,-7.5853,-7.5845,-7.5875,-7.5892,-7.5901,-7.5896,-7.5463,-7.5834,-7.5831,-7.5828,-7.5826,-7.5825,-7.5558,-7.5635,-7.5655,-7.5727,-7.5749,-7.5784,-7.5854,-7.5845,-7.5909,-7.5973,-7.5938,-7.603,-7.6052,-7.6117,-7.6134,-7.6206,-7.6148,-7.6194,-7.6205,-7.6216,-7.6231,-7.5894,-7.6216,-7.6215,-7.6214,-7.6213,-7.6212,0,-7.5885,-7.5893,-7.5961,-7.6013,-7.6071,-7.6003,-7.604,-7.6091,-7.6174,-7.6201,-7.6256,-7.6347,-7.6416,-7.6408,-7.6471,-7.653,-7.65,-7.6548,-7.6542,-7.6544,-7.628,-7.6246,-7.6571,-7.6571,-7.6571,-7.6571,-7.6571,-7.6571,-7.6061,-7.6188,-7.6171,-7.6308,-7.6315,-7.6405,-7.6431,-7.6464,-7.6485,-7.6591,-7.6648,-7.6643,-7.6656,-7.672,-7.6781,-7.6776,-7.6802,-7.6862,-7.6846,-7.6599,-7.6563,-7.6529,-7.6496,-7.6869,-7.6869,-7.7104,-7.7106,-7.7108]},{"header":{"parameterUnit":"m.s-1","parameterCategory":1,"la1":30.2991,"la2":30.254,"lo1":-89.0895,"lo2":-89.0444,"dy":0.0017,"dx":0.0017,"nx":28,"ny":28,"refTime":"2024-06-16T03:00:00:Z","depth":0,"parameterNumber":3,"parameterNumberName":"V-component_of_WINDS"},"data":[0,0,0,0,0,0,0,0,0,0,0,0,0,0,0,0,0,0,0,0,0,0,0,0,0,0,0,0,0,0,0,0,0,0,0,0,0,0,0,0,0,0,0,0,0,0,0,0,0,0,0,0,0,0,0,0,0,0,0.5636,0.5638,0,0.5829,0.5831,0.5833,0.5965,0.5966,0.5967,0.5968,0.6165,0.6169,0.6173,0,0,0,0,0,0,0,0,0,0,0,0,0,0.5385,0.5389,0.5636,0.5639,0.5641,0.5828,0.5831,0.5834,0.5965,0.5967,0.5968,0.5969,0.6164,0.6169,0.6174,0,0,0,0,0,0,0,0,0,0,0,0,0,0.5527,0.539,0.5636,0.5729,0.574,0.5828,0.5831,0.5834,0.5965,0.5967,0.5968,0.5969,0.6162,0.6168,0.6175,0.6185,0,0,0.6194,0.6197,0,0,0,0,0,0,0,0,0.5519,0.5536,0.5713,0.5723,0.5735,0.5875,0.5815,0.5952,0.5965,0.5879,0.5968,0.597,0.6067,0.6082,0.6114,0.6194,0.6203,0.6195,0.6199,0.6202,0.6203,0,0,0,0,0,0,0,0.5509,0.5529,0.5712,0.5716,0.5729,0.5763,0.5784,0.5841,0.5963,0.5887,0.5897,0.5918,0.6073,0.6108,0.612,0.6206,0.6195,0.6201,0.6205,0.6207,0.6308,0.6307,0,0,0,0,0,0,0.5484,0.552,0.5706,0.5718,0.5628,0.5766,0.579,0.5828,0.5962,0.5984,0.5917,0.5923,0.6096,0.6112,0.6127,0.6151,0.6202,0.6208,0.6211,0.6309,0.6307,0.6306,0,0,0,0,0,0,0.5478,0.55,0.5699,0.5622,0.565,0.5769,0.581,0.5831,0.5866,0.5985,0.6007,0.5929,0.6098,0.6118,0.6171,0.6159,0.6211,0.6216,0.631,0.6308,0.6307,0.6195,0,0,0,0,0,0,0.5471,0.5497,0.5501,0.5621,0.5653,0.5737,0.5809,0.5834,0.5877,0.5888,0.6003,0.6023,0.6101,0.616,0.6177,0.6169,0.6222,0.6312,0.631,0.6307,0.62,0.6189,0.618,0,0,0,0,0,0.5461,0.5461,0.55,0.5522,0.5661,0.5736,0.5755,0.5844,0.5875,0.5881,0.5958,0.602,0.6158,0.6164,0.6184,0.6178,0.6313,0.631,0.6308,0.6204,0.6191,0.618,0,0,0,0,0,0,0.5335,0.5478,0.5524,0.5562,0.5636,0.5758,0.5768,0.5827,0.5893,0.5901,0.6009,0.6034,0.6075,0.6132,0.6137,0.6197,0.6243,0.6244,0.6158,0.6147,0.6137,0.6122,0.6227,0,0,0,0,0,0.5312,0.5361,0.5484,0.5506,0.5541,0.5648,0.5684,0.5747,0.5828,0.5859,0.594,0.6016,0.6078,0.6116,0.6178,0.621,0.6238,0.6216,0.6206,0.6197,0.6196,0.622,0.6212,0.6297,0.6297,0.6297,0,0,0.5264,0.5349,0.5372,0.5483,0.5547,0.5596,0.5673,0.5721,0.5759,0.5867,0.5921,0.5984,0.6076,0.6119,0.6142,0.6168,0.618,0.6194,0.6186,0.619,0.6216,0.6208,0.6201,0.6295,0.6296,0.6296,0,0,0.5202,0.5271,0.5298,0.5362,0.546,0.5532,0.5538,0.5653,0.5698,0.5755,0.5838,0.5886,0.5988,0.6051,0.6097,0.6064,0.6123,0.6081,0.6029,0.605,0.6044,0.6038,0.6027,0.6022,0.608,0.608,0.608,0,0.513,0.5207,0.5304,0.5348,0.5395,0.5497,0.5526,0.5583,0.5696,0.5727,0.5755,0.5888,0.5957,0.6017,0.6009,0.6043,0.6055,0.6067,0.6037,0.6032,0.6029,0.602,0.6015,0.6074,0.6075,0.6076,0.6076,0,0.5115,0.5167,0.5177,0.5285,0.5333,0.5369,0.5473,0.5511,0.557,0.564,0.5698,0.5786,0.5869,0.5888,0.5946,0.5957,0.5971,0.6016,0.6064,0.6013,0.6007,0.6004,0.6066,0.6068,0.607,0.6071,0,0,0.4975,0.5139,0.5141,0.5193,0.531,0.5353,0.5395,0.5477,0.5508,0.5584,0.5622,0.5709,0.5753,0.5805,0.5871,0.589,0.586,0.5935,0.5938,0.5918,0.588,0.5845,0.5839,0.5901,0.5901,0.5901,0.5873,0,0.4931,0.5012,0.5102,0.5152,0.5202,0.5302,0.5339,0.5416,0.5483,0.5536,0.5611,0.5671,0.5724,0.5756,0.578,0.5859,0.5854,0.5862,0.5939,0.5941,0.5912,0.5835,0.5797,0.5766,0.5871,0.587,0.587,0,0.489,0.4962,0.5016,0.5132,0.5157,0.5188,0.5273,0.5323,0.5413,0.5461,0.552,0.5592,0.5644,0.5687,0.576,0.5763,0.5801,0.5845,0.5846,0.5856,0.5901,0.5843,0.5758,0.5753,0.5867,0.5867,0.5867,0,0.4783,0.4894,0.4942,0.4983,0.5119,0.5139,0.5197,0.5288,0.5333,0.5408,0.5438,0.5517,0.556,0.5621,0.5713,0.5736,0.5777,0.5827,0.5819,0.5816,0.5822,0.582,0.5741,0.5846,0.5846,0.5846,0.5846,0,0.4724,0.4754,0.4896,0.4925,0.4963,0.5068,0.5102,0.5169,0.525,0.5295,0.5387,0.5427,0.5547,0.5602,0.5675,0.5725,0.5744,0.5785,0.5804,0.5776,0.5771,0.5801,0.5806,0.5845,0.5845,0.5846,0.5846,0,0.4611,0.4707,0.4766,0.4891,0.4923,0.4945,0.5053,0.5086,0.516,0.5216,0.5235,0.5351,0.5421,0.552,0.562,0.5669,0.5709,0.574,0.5678,0.569,0.5676,0.5675,0.5613,0.5611,0.5716,0.5715,0.5714,0,0.4566,0.4591,0.472,0.4757,0.4812,0.487,0.4917,0.5023,0.5068,0.5175,0.5195,0.5273,0.534,0.5448,0.5542,0.562,0.5652,0.5626,0.5665,0.5637,0.5653,0.565,0.5654,0.5615,0.5614,0.5612,0.5611,0,0.4477,0.4524,0.4588,0.467,0.4724,0.4793,0.4867,0.4892,0.5014,0.5061,0.5134,0.5186,0.529,0.5366,0.5458,0.5519,0.5585,0.5599,0.5601,0.5572,0.5536,0.5556,0.5652,0.5599,0.56,0.5601,0.5602,0.5602,0.4397,0.4425,0.4521,0.459,0.4657,0.4725,0.4762,0.4842,0.4905,0.4998,0.5057,0.5128,0.5221,0.5351,0.5409,0.5467,0.5494,0.5497,0.5498,0.5497,0.5488,0.5528,0.5484,0.5485,0.5485,0.5486,0.5486,0,0.4313,0.438,0.4443,0.4544,0.4599,0.4659,0.4745,0.4787,0.4848,0.4929,0.4995,0.508,0.5156,0.5257,0.534,0.5367,0.54,0.5385,0.5384,0.5397,0.5458,0.5448,0.5358,0.5358,0.5358,0.5358,0.5358,0.5358,0.4275,0.4327,0.4386,0.4473,0.4541,0.4611,0.4655,0.4719,0.4785,0.4876,0.494,0.5005,0.5096,0.5187,0.526,0.5288,0.5314,0.529,0.5327,0.5381,0.5393,0.5404,0.5395,0.5295,0.5295,0.5262,0.5261,0.5261]}]]